TimeGMT,TemperatureF,Dew PointF,Humidity,Sea Level PressureIn,VisibilityMPH,Wind Direction,Wind SpeedMPH,Gust SpeedMPH,PrecipitationIn,Events,Conditions,WindDirDegrees,DateUTC
12:00 AM,32,31,96,29.67,7,East,2.2,,,,,80,2012-11-25 00:00:00
12:00 AM,32.0,32.0,100,29.65,-9999.0,East,2.3,-,N/A,,Clear,80,2012-11-25 00:00:00
12:30 AM,30.2,30.2,100,29.65,6.2,South,1.2,-,N/A,Fog,Patches of Fog,170,2012-11-25 00:30:00
1:00 AM,30.2,28.4,93,29.65,6.2,ESE,1.2,-,N/A,Fog,Patches of Fog,110,2012-11-25 01:00:00
1:30 AM,32.0,32.0,100,29.62,6.2,ESE,1.2,-,N/A,,Partly Cloudy,120,2012-11-25 01:30:00
2:00 AM,32.0,32.0,100,29.62,-9999.0,North,-9999.0,-,N/A,,Partly Cloudy,0,2012-11-25 02:00:00
2:30 AM,33.8,33.8,100,29.62,6.2,SE,5.8,-,N/A,,Scattered Clouds,130,2012-11-25 02:30:00
3:00 AM,35.6,33.8,93,29.59,6.2,SE,8.1,-,N/A,,Mostly Cloudy,130,2012-11-25 03:00:00
3:30 AM,33.8,32.0,93,29.59,5.6,ESE,10.4,-,N/A,,Scattered Clouds,120,2012-11-25 03:30:00
4:00 AM,33.8,32.0,93,29.59,6.2,ESE,10.4,-,N/A,,Partly Cloudy,120,2012-11-25 04:00:00
4:30 AM,33.8,33.8,100,29.59,5.6,ESE,10.4,-,N/A,,Partly Cloudy,110,2012-11-25 04:30:00
5:00 AM,35.6,33.8,93,29.56,6.2,ESE,12.7,-,N/A,,Partly Cloudy,120,2012-11-25 05:00:00
5:30 AM,35.6,33.8,93,29.56,6.2,ESE,11.5,-,N/A,,Scattered Clouds,120,2012-11-25 05:30:00
6:00 AM,35,34,93,29.58,12,ESE,11.2,,,,Partly Cloudy,120,2012-11-25 06:00:00
6:00 AM,35.6,33.8,93,29.56,6.2,ESE,11.5,-,N/A,,Scattered Clouds,120,2012-11-25 06:00:00
6:30 AM,35.6,33.8,93,29.56,6.2,ESE,10.4,-,N/A,,Partly Cloudy,120,2012-11-25 06:30:00
7:00 AM,35.6,33.8,93,29.56,6.2,ESE,9.2,-,N/A,,Partly Cloudy,110,2012-11-25 07:00:00
7:30 AM,37.4,35.6,93,29.56,6.2,ESE,10.4,-,N/A,,Scattered Clouds,110,2012-11-25 07:30:00
8:00 AM,37.4,35.6,93,29.53,6.2,ESE,11.5,-,N/A,,Mostly Cloudy,110,2012-11-25 08:00:00
8:30 AM,37.4,35.6,93,29.53,6.2,ESE,10.4,-,N/A,,Mostly Cloudy,110,2012-11-25 08:30:00
9:00 AM,39.2,35.6,87,29.53,6.2,ESE,11.5,-,N/A,,Mostly Cloudy,110,2012-11-25 09:00:00
9:30 AM,39.2,35.6,87,29.53,6.2,East,11.5,-,N/A,,Mostly Cloudy,100,2012-11-25 09:30:00
10:00 AM,39.2,35.6,87,29.53,6.2,East,6.9,-,N/A,,Mostly Cloudy,100,2012-11-25 10:00:00
10:30 AM,39.2,37.4,93,29.53,6.2,East,6.9,-,N/A,Rain,Light Rain,90,2012-11-25 10:30:00
11:00 AM,41.0,37.4,87,29.50,6.2,East,10.4,-,N/A,Rain,Light Rain,90,2012-11-25 11:00:00
11:30 AM,41.0,37.4,87,29.50,6.2,East,10.4,-,N/A,Rain,Light Rain,90,2012-11-25 11:30:00
12:00 PM,41,39,88,29.51,7,East,8.9,,,Rain,Light Rain,80,2012-11-25 12:00:00
12:00 PM,41.0,39.2,93,29.50,6.2,East,9.2,-,N/A,Rain,Light Rain,80,2012-11-25 12:00:00
12:30 PM,42.8,41.0,93,29.47,6.2,NE,8.1,-,N/A,Rain,Light Rain,50,2012-11-25 12:30:00
1:00 PM,42.8,41.0,93,29.47,6.2,NE,9.2,-,N/A,Rain,Light Rain,40,2012-11-25 13:00:00
1:30 PM,42.8,39.2,87,29.47,6.2,NNE,9.2,-,N/A,Rain,Light Rain,30,2012-11-25 13:30:00
2:00 PM,41.0,39.2,93,29.44,6.2,NNE,11.5,-,N/A,Rain,Light Rain,30,2012-11-25 14:00:00
2:30 PM,41.0,39.2,93,29.44,6.2,NNE,10.4,-,N/A,Rain,Light Rain,30,2012-11-25 14:30:00
3:00 PM,41.0,39.2,93,29.44,3.7,NNE,12.7,-,N/A,Rain,Light Rain,30,2012-11-25 15:00:00
3:30 PM,41.0,39.2,93,29.44,4.3,NNE,16.1,-,N/A,Rain,Light Rain,30,2012-11-25 15:30:00
4:00 PM,41.0,39.2,93,29.44,5.0,NNE,10.4,-,N/A,Rain,Light Rain,20,2012-11-25 16:00:00
4:30 PM,41.0,39.2,93,29.47,5.6,North,10.4,-,N/A,Rain,Light Rain,360,2012-11-25 16:30:00
5:00 PM,41.0,39.2,93,29.47,6.2,North,11.5,-,N/A,Rain,Light Rain,10,2012-11-25 17:00:00
5:30 PM,39.2,37.4,93,29.47,6.2,NNW,11.5,-,N/A,Rain,Light Rain,340,2012-11-25 17:30:00
6:00 PM,39,38,93,29.52,8,North,11.2,,,Rain,Light Rain,350,2012-11-25 18:00:00
6:00 PM,39.2,37.4,93,29.50,6.2,North,11.5,-,N/A,Rain,Light Rain,350,2012-11-25 18:00:00
6:30 PM,39.2,37.4,93,29.50,6.2,NNW,12.7,-,N/A,,Mostly Cloudy,340,2012-11-25 18:30:00
7:00 PM,39.2,37.4,93,29.53,6.2,North,10.4,-,N/A,,Mostly Cloudy,350,2012-11-25 19:00:00
7:30 PM,39.2,37.4,93,29.53,6.2,North,11.5,-,N/A,,Mostly Cloudy,350,2012-11-25 19:30:00
8:00 PM,37.4,37.4,100,29.53,6.2,NNW,10.4,-,N/A,,Mostly Cloudy,340,2012-11-25 20:00:00
8:30 PM,37.4,35.6,93,29.56,6.2,NNW,13.8,-,N/A,,Mostly Cloudy,330,2012-11-25 20:30:00
9:00 PM,37.4,35.6,93,29.56,6.2,North,9.2,-,N/A,,Overcast,360,2012-11-25 21:00:00
9:30 PM,37.4,35.6,93,29.59,6.2,NNW,11.5,-,N/A,,Mostly Cloudy,340,2012-11-25 21:30:00
10:00 PM,37.4,35.6,93,29.59,6.2,NNW,13.8,-,N/A,,Mostly Cloudy,340,2012-11-25 22:00:00
10:30 PM,37.4,33.8,87,29.59,6.2,NNW,16.1,-,N/A,,Mostly Cloudy,340,2012-11-25 22:30:00
11:00 PM,37.4,33.8,87,29.62,6.2,NNW,13.8,-,N/A,,Mostly Cloudy,330,2012-11-25 23:00:00
11:30 PM,37.4,35.6,93,29.62,6.2,NNW,13.8,-,N/A,,Mostly Cloudy,330,2012-11-25 23:30:00